owner,sensor,date,latitude,longitude,relative_humidity,qcFlag 
SCCF RECON,ioos:station:SCCF:16:1,2019-11-01T04:15:00Z,26.4345,-81.9647,87.3,11111222 
SCCF RECON,ioos:station:SCCF:16:1,2019-11-01T05:15:00Z,26.4345,-81.9647,88.6,11111222 
SCCF RECON,ioos:station:SCCF:16:1,2019-11-01T06:15:00Z,26.4345,-81.9647,91.4,11111222 
SCCF RECON,ioos:station:SCCF:16:1,2019-11-01T07:15:00Z,26.4345,-81.9647,93.8,11111222 
SCCF RECON,ioos:station:SCCF:16:1,2019-11-01T08:15:00Z,26.4345,-81.9647,96.7,11111222 
SCCF RECON,ioos:station:SCCF:16:1,2019-11-01T09:15:00Z,26.4345,-81.9647,97.7,11111222 
SCCF RECON,ioos:station:SCCF:16:1,2019-11-01T10:15:00Z,26.4345,-81.9647,94.2,11111222 
SCCF RECON,ioos:station:SCCF:16:1,2019-11-01T11:15:00Z,26.4345,-81.9647,94.2,11111222 
SCCF RECON,ioos:station:SCCF:16:1,2019-11-01T12:15:00Z,26.4345,-81.9647,95.5,11111222 
SCCF RECON,ioos:station:SCCF:16:1,2019-11-01T13:15:00Z,26.4345,-81.9647,93.4,11111222 
SCCF RECON,ioos:station:SCCF:16:1,2019-11-01T14:15:00Z,26.4345,-81.9647,91.5,11111222 
SCCF RECON,ioos:station:SCCF:16:1,2019-11-01T15:15:00Z,26.4345,-81.9647,74.4,11111222 
SCCF RECON,ioos:station:SCCF:16:1,2019-11-01T16:15:00Z,26.4345,-81.9647,69.4,11111222 
SCCF RECON,ioos:station:SCCF:16:1,2019-11-01T17:15:00Z,26.4345,-81.9647,70.0,11111222 
SCCF RECON,ioos:station:SCCF:16:1,2019-11-01T18:15:00Z,26.4345,-81.9647,73.2,11111222 
SCCF RECON,ioos:station:SCCF:16:1,2019-11-01T19:15:00Z,26.4345,-81.9647,78.2,11111222 
SCCF RECON,ioos:station:SCCF:16:1,2019-11-01T20:15:00Z,26.4345,-81.9647,83.3,11111222 
SCCF RECON,ioos:station:SCCF:16:1,2019-11-01T21:15:00Z,26.4345,-81.9647,81.2,11111222 
SCCF RECON,ioos:station:SCCF:16:1,2019-11-01T22:15:00Z,26.4345,-81.9647,76.6,11111222 
SCCF RECON,ioos:station:SCCF:16:1,2019-11-02T04:15:00Z,26.4345,-81.9647,89.6,11111222 
SCCF RECON,ioos:station:SCCF:16:1,2019-11-02T05:15:00Z,26.4345,-81.9647,92.8,11111222 
SCCF RECON,ioos:station:SCCF:16:1,2019-11-02T06:15:00Z,26.4345,-81.9647,95.2,11111222 
SCCF RECON,ioos:station:SCCF:16:1,2019-11-02T07:15:00Z,26.4345,-81.9647,97.0,11111222 
SCCF RECON,ioos:station:SCCF:16:1,2019-11-02T08:15:00Z,26.4345,-81.9647,96.7,11111222 
SCCF RECON,ioos:station:SCCF:16:1,2019-11-02T09:15:00Z,26.4345,-81.9647,98.8,11111222 
SCCF RECON,ioos:station:SCCF:16:1,2019-11-02T10:15:00Z,26.4345,-81.9647,99.3,11111222 
SCCF RECON,ioos:station:SCCF:16:1,2019-11-02T11:15:00Z,26.4345,-81.9647,99.5,11111222 
SCCF RECON,ioos:station:SCCF:16:1,2019-11-02T12:15:00Z,26.4345,-81.9647,99.5,11111222 
SCCF RECON,ioos:station:SCCF:16:1,2019-11-02T13:15:00Z,26.4345,-81.9647,96.9,11111222 
SCCF RECON,ioos:station:SCCF:16:1,2019-11-02T14:15:00Z,26.4345,-81.9647,93.2,11111222 
SCCF RECON,ioos:station:SCCF:16:1,2019-11-02T15:15:00Z,26.4345,-81.9647,87.5,11111222 
SCCF RECON,ioos:station:SCCF:16:1,2019-11-02T16:15:00Z,26.4345,-81.9647,83.2,11111222 
SCCF RECON,ioos:station:SCCF:16:1,2019-11-02T17:15:00Z,26.4345,-81.9647,79.3,11111222 
SCCF RECON,ioos:station:SCCF:16:1,2019-11-02T18:15:00Z,26.4345,-81.9647,77.8,11111222 
SCCF RECON,ioos:station:SCCF:16:1,2019-11-02T19:15:00Z,26.4345,-81.9647,75.9,11111222 
SCCF RECON,ioos:station:SCCF:16:1,2019-11-02T20:15:00Z,26.4345,-81.9647,79.7,11111222 
SCCF RECON,ioos:station:SCCF:16:1,2019-11-02T21:15:00Z,26.4345,-81.9647,77.7,11111222 
SCCF RECON,ioos:station:SCCF:16:1,2019-11-02T22:15:00Z,26.4345,-81.9647,86.5,11111222 
SCCF RECON,ioos:station:SCCF:16:1,2019-11-03T04:15:00Z,26.4345,-81.9647,89.8,11111222 
SCCF RECON,ioos:station:SCCF:16:1,2019-11-03T05:15:00Z,26.4345,-81.9647,90.5,11111222 
SCCF RECON,ioos:station:SCCF:16:1,2019-11-03T06:15:00Z,26.4345,-81.9647,93.5,11111222 
SCCF RECON,ioos:station:SCCF:16:1,2019-11-03T07:15:00Z,26.4345,-81.9647,94.6,11111222 
SCCF RECON,ioos:station:SCCF:16:1,2019-11-03T08:15:00Z,26.4345,-81.9647,94.5,11111222 
SCCF RECON,ioos:station:SCCF:16:1,2019-11-03T09:15:00Z,26.4345,-81.9647,94.4,11111222 
SCCF RECON,ioos:station:SCCF:16:1,2019-11-03T10:15:00Z,26.4345,-81.9647,93.8,11111222 
SCCF RECON,ioos:station:SCCF:16:1,2019-11-03T11:15:00Z,26.4345,-81.9647,93.6,11111222 
SCCF RECON,ioos:station:SCCF:16:1,2019-11-03T12:15:00Z,26.4345,-81.9647,90.6,11111222 
SCCF RECON,ioos:station:SCCF:16:1,2019-11-03T13:15:00Z,26.4345,-81.9647,86.7,11111222 
SCCF RECON,ioos:station:SCCF:16:1,2019-11-03T14:15:00Z,26.4345,-81.9647,87.9,11111222 
SCCF RECON,ioos:station:SCCF:16:1,2019-11-03T15:15:00Z,26.4345,-81.9647,78.4,11111222 
SCCF RECON,ioos:station:SCCF:16:1,2019-11-03T16:15:00Z,26.4345,-81.9647,76.4,11111222 
SCCF RECON,ioos:station:SCCF:16:1,2019-11-03T17:15:00Z,26.4345,-81.9647,75.3,11111222 
SCCF RECON,ioos:station:SCCF:16:1,2019-11-03T18:15:00Z,26.4345,-81.9647,72.0,11111222 
SCCF RECON,ioos:station:SCCF:16:1,2019-11-03T19:15:00Z,26.4345,-81.9647,69.2,11111222 
SCCF RECON,ioos:station:SCCF:16:1,2019-11-03T20:15:00Z,26.4345,-81.9647,71.7,11111222 
SCCF RECON,ioos:station:SCCF:16:1,2019-11-03T21:15:00Z,26.4345,-81.9647,70.7,11111222 
SCCF RECON,ioos:station:SCCF:16:1,2019-11-03T22:15:00Z,26.4345,-81.9647,77.7,11111222 
SCCF RECON,ioos:station:SCCF:16:1,2019-11-04T05:15:00Z,26.4345,-81.9647,86.2,11111222 
SCCF RECON,ioos:station:SCCF:16:1,2019-11-04T16:15:00Z,26.4345,-81.9647,83.6,11111222 
SCCF RECON,ioos:station:SCCF:16:1,2019-11-04T17:15:00Z,26.4345,-81.9647,78.6,11111222 
SCCF RECON,ioos:station:SCCF:16:1,2019-11-04T18:15:00Z,26.4345,-81.9647,73.6,11111222 
SCCF RECON,ioos:station:SCCF:16:1,2019-11-04T19:15:00Z,26.4345,-81.9647,81.4,11111222 
SCCF RECON,ioos:station:SCCF:16:1,2019-11-04T20:15:00Z,26.4345,-81.9647,79.2,11111222 
SCCF RECON,ioos:station:SCCF:16:1,2019-11-04T21:15:00Z,26.4345,-81.9647,76.2,11111222 
SCCF RECON,ioos:station:SCCF:16:1,2019-11-04T22:15:00Z,26.4345,-81.9647,80.1,11111222 
SCCF RECON,ioos:station:SCCF:16:1,2019-11-05T05:15:00Z,26.4345,-81.9647,90.1,11111222 
SCCF RECON,ioos:station:SCCF:16:1,2019-11-05T06:15:00Z,26.4345,-81.9647,95.2,11111222 
SCCF RECON,ioos:station:SCCF:16:1,2019-11-05T07:15:00Z,26.4345,-81.9647,92.9,11111222 
SCCF RECON,ioos:station:SCCF:16:1,2019-11-05T08:15:00Z,26.4345,-81.9647,92.2,11111222 
SCCF RECON,ioos:station:SCCF:16:1,2019-11-05T09:15:00Z,26.4345,-81.9647,94.8,11111222 
SCCF RECON,ioos:station:SCCF:16:1,2019-11-05T10:15:00Z,26.4345,-81.9647,95.0,11111222 
SCCF RECON,ioos:station:SCCF:16:1,2019-11-05T11:15:00Z,26.4345,-81.9647,93.1,11111222 
SCCF RECON,ioos:station:SCCF:16:1,2019-11-05T12:15:00Z,26.4345,-81.9647,93.4,11111222 
SCCF RECON,ioos:station:SCCF:16:1,2019-11-05T13:15:00Z,26.4345,-81.9647,90.8,11111222 
SCCF RECON,ioos:station:SCCF:16:1,2019-11-05T14:15:00Z,26.4345,-81.9647,85.8,11111222 
SCCF RECON,ioos:station:SCCF:16:1,2019-11-05T15:15:00Z,26.4345,-81.9647,79.5,11111222 
SCCF RECON,ioos:station:SCCF:16:1,2019-11-05T16:15:00Z,26.4345,-81.9647,76.3,11111222 
SCCF RECON,ioos:station:SCCF:16:1,2019-11-05T17:15:00Z,26.4345,-81.9647,76.8,11111222 
SCCF RECON,ioos:station:SCCF:16:1,2019-11-05T18:15:00Z,26.4345,-81.9647,76.5,11111222 
SCCF RECON,ioos:station:SCCF:16:1,2019-11-05T19:15:00Z,26.4345,-81.9647,76.6,11111222 
SCCF RECON,ioos:station:SCCF:16:1,2019-11-05T20:15:00Z,26.4345,-81.9647,75.9,11111222 
SCCF RECON,ioos:station:SCCF:16:1,2019-11-05T21:15:00Z,26.4345,-81.9647,74.9,11111222 
SCCF RECON,ioos:station:SCCF:16:1,2019-11-05T22:15:00Z,26.4345,-81.9647,79.4,11111222 
SCCF RECON,ioos:station:SCCF:16:1,2019-11-06T05:15:00Z,26.4345,-81.9647,87.6,11111222 
SCCF RECON,ioos:station:SCCF:16:1,2019-11-06T06:15:00Z,26.4345,-81.9647,89.8,11111222 
SCCF RECON,ioos:station:SCCF:16:1,2019-11-06T07:15:00Z,26.4345,-81.9647,96.1,11111222 
SCCF RECON,ioos:station:SCCF:16:1,2019-11-06T08:15:00Z,26.4345,-81.9647,98.8,11111222 
SCCF RECON,ioos:station:SCCF:16:1,2019-11-06T09:15:00Z,26.4345,-81.9647,100.0,11111222 
SCCF RECON,ioos:station:SCCF:16:1,2019-11-06T10:15:00Z,26.4345,-81.9647,100.0,11111222 
SCCF RECON,ioos:station:SCCF:16:1,2019-11-06T11:15:00Z,26.4345,-81.9647,100.0,11111222 
SCCF RECON,ioos:station:SCCF:16:1,2019-11-06T12:15:00Z,26.4345,-81.9647,100.0,11111222 
SCCF RECON,ioos:station:SCCF:16:1,2019-11-06T13:15:00Z,26.4345,-81.9647,100.0,11111222 
SCCF RECON,ioos:station:SCCF:16:1,2019-11-06T14:15:00Z,26.4345,-81.9647,95.5,11111222 
SCCF RECON,ioos:station:SCCF:16:1,2019-11-06T15:15:00Z,26.4345,-81.9647,88.8,11111222 
SCCF RECON,ioos:station:SCCF:16:1,2019-11-06T16:15:00Z,26.4345,-81.9647,80.0,11111222 
SCCF RECON,ioos:station:SCCF:16:1,2019-11-06T17:15:00Z,26.4345,-81.9647,70.8,11111222 
SCCF RECON,ioos:station:SCCF:16:1,2019-11-06T18:15:00Z,26.4345,-81.9647,67.9,11111222 
SCCF RECON,ioos:station:SCCF:16:1,2019-11-06T19:15:00Z,26.4345,-81.9647,59.8,11111222 
SCCF RECON,ioos:station:SCCF:16:1,2019-11-06T20:15:00Z,26.4345,-81.9647,57.3,11111222 
SCCF RECON,ioos:station:SCCF:16:1,2019-11-06T21:15:00Z,26.4345,-81.9647,57.8,11111222 
SCCF RECON,ioos:station:SCCF:16:1,2019-11-06T22:15:00Z,26.4345,-81.9647,64.9,11111222 
SCCF RECON,ioos:station:SCCF:16:1,2019-11-07T05:15:00Z,26.4345,-81.9647,95.2,11111222 
SCCF RECON,ioos:station:SCCF:16:1,2019-11-07T06:15:00Z,26.4345,-81.9647,96.2,11111222 
SCCF RECON,ioos:station:SCCF:16:1,2019-11-07T07:15:00Z,26.4345,-81.9647,97.4,11111222 
SCCF RECON,ioos:station:SCCF:16:1,2019-11-07T08:15:00Z,26.4345,-81.9647,100.0,11111222 
SCCF RECON,ioos:station:SCCF:16:1,2019-11-07T09:15:00Z,26.4345,-81.9647,99.5,11111222 
SCCF RECON,ioos:station:SCCF:16:1,2019-11-07T10:15:00Z,26.4345,-81.9647,99.7,11111222 
SCCF RECON,ioos:station:SCCF:16:1,2019-11-07T11:15:00Z,26.4345,-81.9647,99.7,11111222 
SCCF RECON,ioos:station:SCCF:16:1,2019-11-07T12:15:00Z,26.4345,-81.9647,99.6,11111222 
SCCF RECON,ioos:station:SCCF:16:1,2019-11-07T13:15:00Z,26.4345,-81.9647,96.3,11111222 
SCCF RECON,ioos:station:SCCF:16:1,2019-11-07T14:15:00Z,26.4345,-81.9647,88.0,11111222 
SCCF RECON,ioos:station:SCCF:16:1,2019-11-07T15:15:00Z,26.4345,-81.9647,83.2,11111222 
SCCF RECON,ioos:station:SCCF:16:1,2019-11-07T16:15:00Z,26.4345,-81.9647,73.7,11111222 
SCCF RECON,ioos:station:SCCF:16:1,2019-11-07T17:15:00Z,26.4345,-81.9647,70.1,11111222 
SCCF RECON,ioos:station:SCCF:16:1,2019-11-07T18:15:00Z,26.4345,-81.9647,68.5,11111222 
SCCF RECON,ioos:station:SCCF:16:1,2019-11-07T19:15:00Z,26.4345,-81.9647,64.0,11111222 
SCCF RECON,ioos:station:SCCF:16:1,2019-11-07T20:15:00Z,26.4345,-81.9647,56.5,11111222 
SCCF RECON,ioos:station:SCCF:16:1,2019-11-07T21:15:00Z,26.4345,-81.9647,67.4,11111222 
SCCF RECON,ioos:station:SCCF:16:1,2019-11-07T22:15:00Z,26.4345,-81.9647,70.6,11111222 
SCCF RECON,ioos:station:SCCF:16:1,2019-11-08T05:15:00Z,26.4345,-81.9647,85.1,11111222 
SCCF RECON,ioos:station:SCCF:16:1,2019-11-08T06:15:00Z,26.4345,-81.9647,87.8,11111222 
SCCF RECON,ioos:station:SCCF:16:1,2019-11-08T07:15:00Z,26.4345,-81.9647,89.0,11111222 
SCCF RECON,ioos:station:SCCF:16:1,2019-11-08T08:15:00Z,26.4345,-81.9647,90.4,11111222 
SCCF RECON,ioos:station:SCCF:16:1,2019-11-08T09:15:00Z,26.4345,-81.9647,94.8,11111222 
SCCF RECON,ioos:station:SCCF:16:1,2019-11-08T10:15:00Z,26.4345,-81.9647,94.8,11111222 
SCCF RECON,ioos:station:SCCF:16:1,2019-11-08T11:15:00Z,26.4345,-81.9647,96.6,11111222 
SCCF RECON,ioos:station:SCCF:16:1,2019-11-08T12:15:00Z,26.4345,-81.9647,95.9,11111222 
SCCF RECON,ioos:station:SCCF:16:1,2019-11-08T13:15:00Z,26.4345,-81.9647,93.7,11111222 
SCCF RECON,ioos:station:SCCF:16:1,2019-11-08T14:15:00Z,26.4345,-81.9647,90.2,11111222 
SCCF RECON,ioos:station:SCCF:16:1,2019-11-08T15:15:00Z,26.4345,-81.9647,86.7,11111222 
SCCF RECON,ioos:station:SCCF:16:1,2019-11-08T16:15:00Z,26.4345,-81.9647,82.1,11111222 
SCCF RECON,ioos:station:SCCF:16:1,2019-11-08T17:15:00Z,26.4345,-81.9647,73.7,11111222 
SCCF RECON,ioos:station:SCCF:16:1,2019-11-08T18:15:00Z,26.4345,-81.9647,76.3,11111222 
SCCF RECON,ioos:station:SCCF:16:1,2019-11-08T19:15:00Z,26.4345,-81.9647,79.5,11111222 
SCCF RECON,ioos:station:SCCF:16:1,2019-11-08T20:15:00Z,26.4345,-81.9647,79.4,11111222 
SCCF RECON,ioos:station:SCCF:16:1,2019-11-08T21:15:00Z,26.4345,-81.9647,78.8,11111222 
SCCF RECON,ioos:station:SCCF:16:1,2019-11-08T22:15:00Z,26.4345,-81.9647,85.0,11111222 
SCCF RECON,ioos:station:SCCF:16:1,2019-11-09T05:15:00Z,26.4345,-81.9647,92.8,11111222 
SCCF RECON,ioos:station:SCCF:16:1,2019-11-09T06:15:00Z,26.4345,-81.9647,92.3,11111222 
SCCF RECON,ioos:station:SCCF:16:1,2019-11-09T07:15:00Z,26.4345,-81.9647,93.5,11111222 
SCCF RECON,ioos:station:SCCF:16:1,2019-11-09T08:15:00Z,26.4345,-81.9647,92.6,11111222 
SCCF RECON,ioos:station:SCCF:16:1,2019-11-09T09:15:00Z,26.4345,-81.9647,92.7,11111222 
SCCF RECON,ioos:station:SCCF:16:1,2019-11-09T10:15:00Z,26.4345,-81.9647,94.8,11111222 
SCCF RECON,ioos:station:SCCF:16:1,2019-11-09T11:15:00Z,26.4345,-81.9647,91.9,11111222 
SCCF RECON,ioos:station:SCCF:16:1,2019-11-09T12:15:00Z,26.4345,-81.9647,90.3,11111222 
SCCF RECON,ioos:station:SCCF:16:1,2019-11-09T13:15:00Z,26.4345,-81.9647,89.8,11111222 
SCCF RECON,ioos:station:SCCF:16:1,2019-11-09T14:15:00Z,26.4345,-81.9647,90.9,11111222 
SCCF RECON,ioos:station:SCCF:16:1,2019-11-09T15:15:00Z,26.4345,-81.9647,97.9,11111222 
SCCF RECON,ioos:station:SCCF:16:1,2019-11-09T16:15:00Z,26.4345,-81.9647,96.2,11111222 
SCCF RECON,ioos:station:SCCF:16:1,2019-11-09T17:15:00Z,26.4345,-81.9647,95.9,11111222 
SCCF RECON,ioos:station:SCCF:16:1,2019-11-09T18:15:00Z,26.4345,-81.9647,84.9,11111222 
SCCF RECON,ioos:station:SCCF:16:1,2019-11-09T19:15:00Z,26.4345,-81.9647,80.7,11111222 
SCCF RECON,ioos:station:SCCF:16:1,2019-11-09T20:15:00Z,26.4345,-81.9647,80.6,11111222 
SCCF RECON,ioos:station:SCCF:16:1,2019-11-09T21:15:00Z,26.4345,-81.9647,71.8,11111222 
SCCF RECON,ioos:station:SCCF:16:1,2019-11-09T22:15:00Z,26.4345,-81.9647,68.4,11111222 
SCCF RECON,ioos:station:SCCF:16:1,2019-11-10T05:15:00Z,26.4345,-81.9647,83.8,11111222 
SCCF RECON,ioos:station:SCCF:16:1,2019-11-10T06:15:00Z,26.4345,-81.9647,79.0,11111222 
SCCF RECON,ioos:station:SCCF:16:1,2019-11-10T07:15:00Z,26.4345,-81.9647,83.6,11111222 
SCCF RECON,ioos:station:SCCF:16:1,2019-11-10T08:15:00Z,26.4345,-81.9647,85.2,11111222 
SCCF RECON,ioos:station:SCCF:16:1,2019-11-10T09:15:00Z,26.4345,-81.9647,85.8,11111222 
SCCF RECON,ioos:station:SCCF:16:1,2019-11-10T10:15:00Z,26.4345,-81.9647,86.1,11111222 
SCCF RECON,ioos:station:SCCF:16:1,2019-11-10T11:15:00Z,26.4345,-81.9647,86.6,11111222 
SCCF RECON,ioos:station:SCCF:16:1,2019-11-10T12:15:00Z,26.4345,-81.9647,86.6,11111222 
SCCF RECON,ioos:station:SCCF:16:1,2019-11-10T13:15:00Z,26.4345,-81.9647,78.5,11111222 
SCCF RECON,ioos:station:SCCF:16:1,2019-11-10T14:15:00Z,26.4345,-81.9647,67.7,11111222 
SCCF RECON,ioos:station:SCCF:16:1,2019-11-10T15:15:00Z,26.4345,-81.9647,61.7,11111222 
SCCF RECON,ioos:station:SCCF:16:1,2019-11-10T16:15:00Z,26.4345,-81.9647,55.0,11111222 
SCCF RECON,ioos:station:SCCF:16:1,2019-11-10T17:15:00Z,26.4345,-81.9647,57.7,11111222 
SCCF RECON,ioos:station:SCCF:16:1,2019-11-10T18:15:00Z,26.4345,-81.9647,53.5,11111222 
SCCF RECON,ioos:station:SCCF:16:1,2019-11-10T19:15:00Z,26.4345,-81.9647,48.8,11111222 
SCCF RECON,ioos:station:SCCF:16:1,2019-11-10T20:15:00Z,26.4345,-81.9647,41.4,11111222 
SCCF RECON,ioos:station:SCCF:16:1,2019-11-10T21:15:00Z,26.4345,-81.9647,47.8,11111222 
SCCF RECON,ioos:station:SCCF:16:1,2019-11-10T22:15:00Z,26.4345,-81.9647,46.7,11111222 
SCCF RECON,ioos:station:SCCF:16:1,2019-11-11T05:15:00Z,26.4345,-81.9647,85.4,11111222 
SCCF RECON,ioos:station:SCCF:16:1,2019-11-11T06:15:00Z,26.4345,-81.9647,83.4,11111222 
SCCF RECON,ioos:station:SCCF:16:1,2019-11-11T07:15:00Z,26.4345,-81.9647,86.9,11111222 
SCCF RECON,ioos:station:SCCF:16:1,2019-11-11T08:15:00Z,26.4345,-81.9647,89.3,11111222 
SCCF RECON,ioos:station:SCCF:16:1,2019-11-11T09:15:00Z,26.4345,-81.9647,89.2,11111222 
SCCF RECON,ioos:station:SCCF:16:1,2019-11-11T10:15:00Z,26.4345,-81.9647,91.2,11111222 
SCCF RECON,ioos:station:SCCF:16:1,2019-11-11T11:15:00Z,26.4345,-81.9647,90.9,11111222 
SCCF RECON,ioos:station:SCCF:16:1,2019-11-11T12:15:00Z,26.4345,-81.9647,91.5,11111222 
SCCF RECON,ioos:station:SCCF:16:1,2019-11-11T13:15:00Z,26.4345,-81.9647,86.2,11111222 
SCCF RECON,ioos:station:SCCF:16:1,2019-11-11T14:15:00Z,26.4345,-81.9647,78.8,11111222 
SCCF RECON,ioos:station:SCCF:16:1,2019-11-11T15:15:00Z,26.4345,-81.9647,65.9,11111222 
SCCF RECON,ioos:station:SCCF:16:1,2019-11-11T16:15:00Z,26.4345,-81.9647,65.3,11111222 
SCCF RECON,ioos:station:SCCF:16:1,2019-11-11T17:15:00Z,26.4345,-81.9647,66.1,11111222 
SCCF RECON,ioos:station:SCCF:16:1,2019-11-11T18:15:00Z,26.4345,-81.9647,65.4,11111222 
SCCF RECON,ioos:station:SCCF:16:1,2019-11-11T19:15:00Z,26.4345,-81.9647,58.1,11111222 
SCCF RECON,ioos:station:SCCF:16:1,2019-11-11T20:15:00Z,26.4345,-81.9647,60.2,11111222 
SCCF RECON,ioos:station:SCCF:16:1,2019-11-11T21:15:00Z,26.4345,-81.9647,56.1,11111222 
SCCF RECON,ioos:station:SCCF:16:1,2019-11-11T22:15:00Z,26.4345,-81.9647,65.9,11111222 
SCCF RECON,ioos:station:SCCF:16:1,2019-11-12T05:15:00Z,26.4345,-81.9647,76.8,11111222 
SCCF RECON,ioos:station:SCCF:16:1,2019-11-12T06:15:00Z,26.4345,-81.9647,78.5,11111222 
SCCF RECON,ioos:station:SCCF:16:1,2019-11-12T07:15:00Z,26.4345,-81.9647,83.3,11111222 
SCCF RECON,ioos:station:SCCF:16:1,2019-11-12T08:15:00Z,26.4345,-81.9647,90.1,11111222 
SCCF RECON,ioos:station:SCCF:16:1,2019-11-12T09:15:00Z,26.4345,-81.9647,92.6,11111222 
SCCF RECON,ioos:station:SCCF:16:1,2019-11-12T10:15:00Z,26.4345,-81.9647,92.5,11111222 
SCCF RECON,ioos:station:SCCF:16:1,2019-11-12T11:15:00Z,26.4345,-81.9647,93.1,11111222 
SCCF RECON,ioos:station:SCCF:16:1,2019-11-12T12:15:00Z,26.4345,-81.9647,89.1,11111222 
SCCF RECON,ioos:station:SCCF:16:1,2019-11-12T13:15:00Z,26.4345,-81.9647,83.9,11111222 
SCCF RECON,ioos:station:SCCF:16:1,2019-11-12T14:15:00Z,26.4345,-81.9647,81.8,11111222 
SCCF RECON,ioos:station:SCCF:16:1,2019-11-12T15:15:00Z,26.4345,-81.9647,74.2,11111222 
SCCF RECON,ioos:station:SCCF:16:1,2019-11-12T16:15:00Z,26.4345,-81.9647,70.0,11111222 
SCCF RECON,ioos:station:SCCF:16:1,2019-11-12T17:15:00Z,26.4345,-81.9647,67.5,11111222 
SCCF RECON,ioos:station:SCCF:16:1,2019-11-12T18:15:00Z,26.4345,-81.9647,71.0,11111222 
SCCF RECON,ioos:station:SCCF:16:1,2019-11-12T19:15:00Z,26.4345,-81.9647,55.9,11111222 
SCCF RECON,ioos:station:SCCF:16:1,2019-11-12T20:15:00Z,26.4345,-81.9647,51.1,11111222 
SCCF RECON,ioos:station:SCCF:16:1,2019-11-12T21:15:00Z,26.4345,-81.9647,61.4,11111222 
SCCF RECON,ioos:station:SCCF:16:1,2019-11-12T22:15:00Z,26.4345,-81.9647,67.2,11111222 
SCCF RECON,ioos:station:SCCF:16:1,2019-11-13T05:15:00Z,26.4345,-81.9647,94.5,11111222 
SCCF RECON,ioos:station:SCCF:16:1,2019-11-13T06:15:00Z,26.4345,-81.9647,95.8,11111222 
SCCF RECON,ioos:station:SCCF:16:1,2019-11-13T07:15:00Z,26.4345,-81.9647,100.0,11111222 
SCCF RECON,ioos:station:SCCF:16:1,2019-11-13T08:15:00Z,26.4345,-81.9647,95.2,11111222 
SCCF RECON,ioos:station:SCCF:16:1,2019-11-13T09:15:00Z,26.4345,-81.9647,95.4,11111222 
SCCF RECON,ioos:station:SCCF:16:1,2019-11-13T10:15:00Z,26.4345,-81.9647,95.9,11111222 
SCCF RECON,ioos:station:SCCF:16:1,2019-11-13T11:15:00Z,26.4345,-81.9647,99.7,11111222 
SCCF RECON,ioos:station:SCCF:16:1,2019-11-13T12:15:00Z,26.4345,-81.9647,97.4,11111222 
SCCF RECON,ioos:station:SCCF:16:1,2019-11-13T13:15:00Z,26.4345,-81.9647,92.8,11111222 
SCCF RECON,ioos:station:SCCF:16:1,2019-11-13T14:15:00Z,26.4345,-81.9647,93.2,11111222 
SCCF RECON,ioos:station:SCCF:16:1,2019-11-13T15:15:00Z,26.4345,-81.9647,89.4,11111222 
SCCF RECON,ioos:station:SCCF:16:1,2019-11-13T16:15:00Z,26.4345,-81.9647,87.0,11111222 
SCCF RECON,ioos:station:SCCF:16:1,2019-11-13T17:15:00Z,26.4345,-81.9647,82.2,11111222 
SCCF RECON,ioos:station:SCCF:16:1,2019-11-13T18:15:00Z,26.4345,-81.9647,79.9,11111222 
SCCF RECON,ioos:station:SCCF:16:1,2019-11-13T19:15:00Z,26.4345,-81.9647,77.7,11111222 
SCCF RECON,ioos:station:SCCF:16:1,2019-11-13T20:15:00Z,26.4345,-81.9647,77.7,11111222 
SCCF RECON,ioos:station:SCCF:16:1,2019-11-13T21:15:00Z,26.4345,-81.9647,77.5,11111222 
SCCF RECON,ioos:station:SCCF:16:1,2019-11-13T22:15:00Z,26.4345,-81.9647,81.2,11111222 
SCCF RECON,ioos:station:SCCF:16:1,2019-11-14T05:15:00Z,26.4345,-81.9647,89.2,11111222 
SCCF RECON,ioos:station:SCCF:16:1,2019-11-14T06:15:00Z,26.4345,-81.9647,91.4,11111222 
SCCF RECON,ioos:station:SCCF:16:1,2019-11-14T07:15:00Z,26.4345,-81.9647,93.4,11111222 
SCCF RECON,ioos:station:SCCF:16:1,2019-11-14T08:15:00Z,26.4345,-81.9647,92.7,11111222 
SCCF RECON,ioos:station:SCCF:16:1,2019-11-14T09:15:00Z,26.4345,-81.9647,94.8,11111222 
SCCF RECON,ioos:station:SCCF:16:1,2019-11-14T10:15:00Z,26.4345,-81.9647,94.8,11111222 
SCCF RECON,ioos:station:SCCF:16:1,2019-11-14T11:15:00Z,26.4345,-81.9647,96.4,11111222 
SCCF RECON,ioos:station:SCCF:16:1,2019-11-14T12:15:00Z,26.4345,-81.9647,96.3,11111222 
SCCF RECON,ioos:station:SCCF:16:1,2019-11-14T13:15:00Z,26.4345,-81.9647,91.7,11111222 
SCCF RECON,ioos:station:SCCF:16:1,2019-11-14T14:15:00Z,26.4345,-81.9647,88.1,11111222 
SCCF RECON,ioos:station:SCCF:16:1,2019-11-14T15:15:00Z,26.4345,-81.9647,83.2,11111222 
SCCF RECON,ioos:station:SCCF:16:1,2019-11-14T16:15:00Z,26.4345,-81.9647,77.7,11111222 
SCCF RECON,ioos:station:SCCF:16:1,2019-11-14T17:15:00Z,26.4345,-81.9647,77.1,11111222 
SCCF RECON,ioos:station:SCCF:16:1,2019-11-14T18:15:00Z,26.4345,-81.9647,75.8,11111222 
SCCF RECON,ioos:station:SCCF:16:1,2019-11-14T19:15:00Z,26.4345,-81.9647,77.1,11111222 
SCCF RECON,ioos:station:SCCF:16:1,2019-11-14T20:15:00Z,26.4345,-81.9647,77.6,11111222 
SCCF RECON,ioos:station:SCCF:16:1,2019-11-14T21:15:00Z,26.4345,-81.9647,81.3,11111222 
SCCF RECON,ioos:station:SCCF:16:1,2019-11-14T22:15:00Z,26.4345,-81.9647,84.4,11111222 
SCCF RECON,ioos:station:SCCF:16:1,2019-11-15T05:15:00Z,26.4345,-81.9647,97.5,11111222 
SCCF RECON,ioos:station:SCCF:16:1,2019-11-15T06:15:00Z,26.4345,-81.9647,98.1,11111222 
SCCF RECON,ioos:station:SCCF:16:1,2019-11-15T07:15:00Z,26.4345,-81.9647,96.3,11111222 
SCCF RECON,ioos:station:SCCF:16:1,2019-11-15T08:15:00Z,26.4345,-81.9647,95.4,11111222 
SCCF RECON,ioos:station:SCCF:16:1,2019-11-15T09:15:00Z,26.4345,-81.9647,95.5,11111222 
SCCF RECON,ioos:station:SCCF:16:1,2019-11-15T10:15:00Z,26.4345,-81.9647,99.1,11111222 
SCCF RECON,ioos:station:SCCF:16:1,2019-11-15T11:15:00Z,26.4345,-81.9647,100.0,11111222 
SCCF RECON,ioos:station:SCCF:16:1,2019-11-15T12:15:00Z,26.4345,-81.9647,100.0,11111222 
SCCF RECON,ioos:station:SCCF:16:1,2019-11-15T13:15:00Z,26.4345,-81.9647,97.0,11111222 
SCCF RECON,ioos:station:SCCF:16:1,2019-11-15T14:15:00Z,26.4345,-81.9647,94.7,11111222 
SCCF RECON,ioos:station:SCCF:16:1,2019-11-15T15:15:00Z,26.4345,-81.9647,99.4,11111222 
SCCF RECON,ioos:station:SCCF:16:1,2019-11-15T16:15:00Z,26.4345,-81.9647,95.9,11111222 
SCCF RECON,ioos:station:SCCF:16:1,2019-11-15T17:15:00Z,26.4345,-81.9647,97.3,11111222 
SCCF RECON,ioos:station:SCCF:16:1,2019-11-15T18:15:00Z,26.4345,-81.9647,95.2,11111222 
SCCF RECON,ioos:station:SCCF:16:1,2019-11-15T19:15:00Z,26.4345,-81.9647,87.9,11111222 
SCCF RECON,ioos:station:SCCF:16:1,2019-11-15T20:15:00Z,26.4345,-81.9647,87.0,11111222 
SCCF RECON,ioos:station:SCCF:16:1,2019-11-15T22:15:00Z,26.4345,-81.9647,91.5,11111222 
SCCF RECON,ioos:station:SCCF:16:1,2019-11-16T05:15:00Z,26.4345,-81.9647,91.5,11111222 
SCCF RECON,ioos:station:SCCF:16:1,2019-11-16T06:15:00Z,26.4345,-81.9647,83.7,11111222 
SCCF RECON,ioos:station:SCCF:16:1,2019-11-16T07:15:00Z,26.4345,-81.9647,85.5,11111222 
SCCF RECON,ioos:station:SCCF:16:1,2019-11-16T08:15:00Z,26.4345,-81.9647,82.4,11111222 
SCCF RECON,ioos:station:SCCF:16:1,2019-11-16T09:15:00Z,26.4345,-81.9647,85.0,11111222 
SCCF RECON,ioos:station:SCCF:16:1,2019-11-16T10:15:00Z,26.4345,-81.9647,83.6,11111222 
SCCF RECON,ioos:station:SCCF:16:1,2019-11-16T11:15:00Z,26.4345,-81.9647,85.4,11111222 
SCCF RECON,ioos:station:SCCF:16:1,2019-11-16T12:15:00Z,26.4345,-81.9647,84.9,11111222 
SCCF RECON,ioos:station:SCCF:16:1,2019-11-16T13:15:00Z,26.4345,-81.9647,84.3,11111222 
SCCF RECON,ioos:station:SCCF:16:1,2019-11-16T14:15:00Z,26.4345,-81.9647,62.1,11111222 
SCCF RECON,ioos:station:SCCF:16:1,2019-11-16T15:15:00Z,26.4345,-81.9647,70.7,11111222 
SCCF RECON,ioos:station:SCCF:16:1,2019-11-16T16:15:00Z,26.4345,-81.9647,70.8,11111222 
SCCF RECON,ioos:station:SCCF:16:1,2019-11-16T17:15:00Z,26.4345,-81.9647,79.5,11111222 